TimeMST,TemperatureF,Dew PointF,Humidity,Sea Level PressureIn,VisibilityMPH,Wind Direction,Wind SpeedMPH,Gust SpeedMPH,PrecipitationIn,Events,Conditions,WindDirDegrees,DateUTC
12:15 AM,64.4,15.8,15,30.24,10.0,NNE,16.1,20.7,N/A,,Clear,30,2014-01-21 07:15:00
12:35 AM,62.6,15.8,16,30.24,10.0,NNE,18.4,24.2,N/A,,Clear,30,2014-01-21 07:35:00
12:55 AM,62.6,14.0,15,30.23,10.0,NNE,19.6,26.5,N/A,,Clear,30,2014-01-21 07:55:00
1:15 AM,62.6,14.0,15,30.23,10.0,NNE,17.3,24.2,N/A,,Clear,30,2014-01-21 08:15:00
1:35 AM,62.6,15.8,16,30.23,10.0,NE,15.0,20.7,N/A,,Clear,40,2014-01-21 08:35:00
1:55 AM,62.6,15.8,16,30.23,10.0,NE,16.1,23.0,N/A,,Clear,40,2014-01-21 08:55:00
2:15 AM,62.6,15.8,16,30.23,10.0,NNE,17.3,23.0,N/A,,Clear,30,2014-01-21 09:15:00
2:35 AM,62.6,15.8,16,30.23,10.0,NNE,20.7,24.2,N/A,,Clear,30,2014-01-21 09:35:00
2:55 AM,60.8,15.8,17,30.24,10.0,NE,15.0,25.3,N/A,,Clear,50,2014-01-21 09:55:00
3:15 AM,62.6,15.8,16,30.24,10.0,NE,18.4,28.8,N/A,,Clear,40,2014-01-21 10:15:00
3:35 AM,62.6,15.8,16,30.23,10.0,NE,24.2,27.6,N/A,,Clear,40,2014-01-21 10:35:00
3:55 AM,62.6,17.6,18,30.23,10.0,NNE,24.2,29.9,N/A,,Clear,30,2014-01-21 10:55:00
4:15 AM,62.6,15.8,16,30.23,10.0,NNE,21.9,28.8,N/A,,Clear,30,2014-01-21 11:15:00
4:35 AM,60.8,17.6,19,30.23,10.0,NNE,20.7,32.2,N/A,,Clear,30,2014-01-21 11:35:00
4:55 AM,59.0,17.6,20,30.23,10.0,NNE,21.9,27.6,N/A,,Clear,30,2014-01-21 11:55:00
5:15 AM,59.0,17.6,20,30.23,10.0,NE,20.7,-,N/A,,Clear,40,2014-01-21 12:15:00
5:35 AM,59.0,17.6,20,30.23,10.0,NE,21.9,29.9,N/A,,Clear,40,2014-01-21 12:35:00
5:55 AM,59.0,17.6,20,30.23,10.0,NNE,21.9,28.8,N/A,,Clear,30,2014-01-21 12:55:00
6:15 AM,59.0,17.6,20,30.23,10.0,NNE,24.2,28.8,N/A,,Clear,30,2014-01-21 13:15:00
6:35 AM,59.0,17.6,20,30.24,10.0,NE,21.9,28.8,N/A,,Clear,40,2014-01-21 13:35:00
6:55 AM,59.0,17.6,20,30.24,10.0,NE,21.9,26.5,N/A,,Clear,40,2014-01-21 13:55:00
7:15 AM,59.0,17.6,20,30.25,10.0,NE,20.7,28.8,N/A,,Clear,40,2014-01-21 14:15:00
7:35 AM,59.0,17.6,20,30.25,10.0,NNE,17.3,28.8,N/A,,Clear,30,2014-01-21 14:35:00
7:55 AM,57.2,17.6,21,30.26,10.0,NE,18.4,23.0,N/A,,Clear,40,2014-01-21 14:55:00
8:15 AM,59.0,17.6,20,30.26,10.0,NNE,20.7,26.5,N/A,,Clear,30,2014-01-21 15:15:00
8:35 AM,59.0,17.6,20,30.27,10.0,NNE,21.9,31.1,N/A,,Clear,30,2014-01-21 15:35:00
8:55 AM,59.0,17.6,20,30.28,10.0,NNE,21.9,27.6,N/A,,Clear,30,2014-01-21 15:55:00
9:15 AM,59.0,17.6,20,30.28,10.0,NE,24.2,32.2,N/A,,Clear,40,2014-01-21 16:15:00
9:35 AM,60.8,17.6,19,30.27,10.0,NNE,26.5,34.5,N/A,,Clear,30,2014-01-21 16:35:00
9:55 AM,60.8,17.6,19,30.28,10.0,NNE,27.6,33.4,N/A,,Clear,30,2014-01-21 16:55:00
10:15 AM,60.8,17.6,19,30.28,10.0,NNE,23.0,34.5,N/A,,Clear,30,2014-01-21 17:15:00
10:35 AM,62.6,17.6,18,30.28,10.0,NNE,26.5,35.7,N/A,,Clear,20,2014-01-21 17:35:00
10:55 AM,64.4,17.6,16,30.28,10.0,NNE,26.5,38.0,N/A,,Clear,20,2014-01-21 17:55:00
11:15 AM,64.4,17.6,16,30.27,10.0,NNE,27.6,32.2,N/A,,Clear,20,2014-01-21 18:15:00
11:35 AM,66.2,17.6,15,30.27,10.0,NNE,24.2,35.7,N/A,,Clear,20,2014-01-21 18:35:00
11:55 AM,66.2,15.8,14,30.25,10.0,NNE,26.5,35.7,N/A,,Clear,20,2014-01-21 18:55:00
12:15 PM,66.2,15.8,14,30.24,10.0,NNE,24.2,34.5,N/A,,Clear,20,2014-01-21 19:15:00
12:35 PM,68.0,15.8,13,30.23,10.0,North,23.0,29.9,N/A,,Clear,10,2014-01-21 19:35:00
12:55 PM,68.0,15.8,13,30.21,10.0,NNE,24.2,32.2,N/A,,Clear,20,2014-01-21 19:55:00
1:15 PM,68.0,17.6,15,30.19,10.0,North,27.6,34.5,N/A,,Clear,10,2014-01-21 20:15:00
1:35 PM,68.0,15.8,13,30.18,10.0,North,23.0,33.4,N/A,,Clear,10,2014-01-21 20:35:00
1:55 PM,69.8,15.8,13,30.17,10.0,North,20.7,29.9,N/A,,Clear,10,2014-01-21 20:55:00
2:15 PM,71.6,15.8,12,30.16,10.0,NNE,21.9,27.6,N/A,,Clear,20,2014-01-21 21:15:00
2:35 PM,71.6,15.8,12,30.15,10.0,NNE,20.7,26.5,N/A,,Clear,20,2014-01-21 21:35:00
2:55 PM,71.6,15.8,12,30.14,10.0,NNE,21.9,26.5,N/A,,Clear,20,2014-01-21 21:55:00
3:15 PM,71.6,15.8,12,30.14,10.0,NNE,21.9,28.8,N/A,,Clear,20,2014-01-21 22:15:00
3:35 PM,71.6,14.0,11,30.13,10.0,North,20.7,28.8,N/A,,Clear,10,2014-01-21 22:35:00
3:55 PM,71.6,14.0,11,30.13,10.0,NNE,17.3,26.5,N/A,,Clear,20,2014-01-21 22:55:00
4:15 PM,71.6,14.0,11,30.13,10.0,North,18.4,24.2,N/A,,Clear,10,2014-01-21 23:15:00
4:35 PM,71.6,15.8,12,30.13,10.0,North,17.3,24.2,N/A,,Clear,10,2014-01-21 23:35:00
4:55 PM,69.8,15.8,13,30.13,10.0,NNE,11.5,21.9,N/A,,Clear,20,2014-01-21 23:55:00
5:15 PM,69.8,15.8,13,30.13,10.0,North,12.7,20.7,N/A,,Clear,10,2014-01-22 00:15:00
5:35 PM,68.0,17.6,15,30.13,10.0,NNE,13.8,-,N/A,,Clear,20,2014-01-22 00:35:00
5:55 PM,68.0,17.6,15,30.13,10.0,NNE,16.1,-,N/A,,Clear,20,2014-01-22 00:55:00
6:15 PM,68.0,17.6,15,30.14,10.0,NNE,13.8,-,N/A,,Clear,20,2014-01-22 01:15:00
6:35 PM,66.2,17.6,15,30.14,10.0,NNE,15.0,-,N/A,,Clear,30,2014-01-22 01:35:00
6:55 PM,66.2,17.6,15,30.14,10.0,NNE,15.0,-,N/A,,Clear,30,2014-01-22 01:55:00
7:15 PM,66.2,17.6,15,30.14,10.0,NNE,12.7,-,N/A,,Clear,30,2014-01-22 02:15:00
7:35 PM,66.2,17.6,15,30.14,10.0,NNE,15.0,-,N/A,,Unknown,30,2014-01-22 02:35:00
7:55 PM,66.2,17.6,15,30.13,10.0,NNE,17.3,-,N/A,,Clear,30,2014-01-22 02:55:00
8:15 PM,66.2,17.6,15,30.12,10.0,NNE,16.1,-,N/A,,Clear,30,2014-01-22 03:15:00
8:35 PM,66.2,17.6,15,30.13,10.0,NNE,12.7,-,N/A,,Clear,30,2014-01-22 03:35:00
8:55 PM,66.2,15.8,14,30.12,10.0,NNE,10.4,-,N/A,,Clear,20,2014-01-22 03:55:00
9:15 PM,64.4,17.6,16,30.13,10.0,North,4.6,-,N/A,,Clear,10,2014-01-22 04:15:00
9:35 PM,64.4,15.8,15,30.12,10.0,NNE,12.7,-,N/A,,Clear,30,2014-01-22 04:35:00
9:55 PM,62.6,23.0,22,30.12,10.0,NNE,5.8,-,N/A,,Clear,20,2014-01-22 04:55:00
10:15 PM,60.8,23.0,23,30.13,10.0,North,8.1,-,N/A,,Clear,10,2014-01-22 05:15:00
10:35 PM,62.6,21.2,20,30.12,10.0,North,8.1,-,N/A,,Clear,360,2014-01-22 05:35:00
10:55 PM,60.8,23.0,23,30.12,10.0,NNE,6.9,-,N/A,,Clear,20,2014-01-22 05:55:00
11:15 PM,60.8,23.0,23,30.12,10.0,NNE,5.8,-,N/A,,Clear,20,2014-01-22 06:15:00
11:35 PM,60.8,23.0,23,30.12,10.0,North,6.9,-,N/A,,Clear,10,2014-01-22 06:35:00
11:55 PM,60.8,24.8,25,30.12,10.0,North,6.9,-,N/A,,Clear,10,2014-01-22 06:55:00